KD9JOU-13 Weather Reports


time (UTC)temp
F
wind
direction
speed
knots
gust
knots
rain 1hr
in
rain 24hr
in
rain mn
in
humidity
%
barometer
mb
20260906124331 75 325 0.0 1.7 0.00 0.00 0.00 92 1015.5
20260906123830 75 360 0.0 0.0 0.00 0.00 0.00 92 1015.5
20260906123331 75 320 0.0 0.0 0.00 0.00 0.00 93 1015.4
20260906122831 75 313 1.7 1.7 0.00 0.00 0.00 93 1015.4
20260906122331 75 360 0.0 0.0 0.00 0.00 0.00 93 1015.3
20260906121831 75 360 0.0 0.0 0.00 0.00 0.00 93 1015.2
20260906120908 75 47 0.9 1.7 0.00 0.00 0.00 94 1015.1
20260906120331 75 360 0.0 0.0 0.00 0.00 0.00 94 1015.1
20260906115831 75 360 0.0 0.0 0.00 0.00 0.00 93 1015.1
20260906115331 75 305 0.9 1.7 0.00 0.00 0.00 93 1015.1
20260906114831 75 360 0.0 0.0 0.00 0.00 0.00 93 1015.1
20260906114331 75 360 0.0 0.0 0.00 0.00 0.00 93 1015.0
20260906113831 75 360 0.0 0.0 0.00 0.00 0.00 93 1014.9
20260906113331 75 360 0.0 0.0 0.00 0.00 0.00 93 1014.8
20260906112831 75 360 0.0 0.0 0.00 0.00 0.00 93 1014.8
20260906112331 75 360 0.0 0.0 0.00 0.00 0.00 93 1014.7
20260906111831 76 360 0.0 0.0 0.00 0.00 0.00 93 1014.7
20260906111331 76 360 0.0 0.0 0.00 0.00 0.00 93 1014.6
20260906110831 76 360 0.0 0.0 0.00 0.00 0.00 93 1014.6
20260906110331 76 360 0.0 0.0 0.00 0.00 0.00 94 1014.5
20260906105831 76 360 0.0 0.0 0.00 0.00 0.00 94 1014.5
20260906105332 76 360 0.0 0.0 0.00 0.00 0.00 94 1014.4
20260906104831 76 360 0.0 0.0 0.00 0.00 0.00 94 1014.3
20260906104331 76 360 0.0 0.0 0.00 0.00 0.00 94 1014.3
20260906103831 76 360 0.0 0.0 0.00 0.00 0.00 95 1014.2
20260906103331 76 360 0.0 0.0 0.00 0.00 0.00 95 1013.9
20260906102831 76 232 1.7 1.7 0.00 0.00 0.00 95 1013.9
20260906102331 76 360 0.0 0.0 0.00 0.00 0.00 95 1013.9
20260906101831 76 360 0.0 0.0 0.00 0.00 0.00 96 1013.9
20260906101330 76 360 0.0 0.0 0.00 0.00 0.00 96 1013.8
20260906100831 76 360 0.0 0.0 0.00 0.00 0.00 96 1013.8
20260906100332 76 360 0.0 0.0 0.00 0.00 0.00 96 1013.7
20260906095832 76 360 0.0 0.0 0.00 0.00 0.00 96 1013.6
20260906095331 76 360 0.0 0.0 0.00 0.00 0.00 96 1013.6
20260906094831 76 360 0.0 0.0 0.00 0.00 0.00 96 1013.6
20260906094331 76 360 0.0 0.0 0.00 0.00 0.00 97 1013.6
20260906093831 76 360 0.0 0.0 0.00 0.00 0.00 97 1013.6
20260906093331 76 360 0.0 0.0 0.00 0.00 0.00 97 1013.5
20260906092831 76 360 0.0 0.0 0.00 0.00 0.00 97 1013.6
20260906092331 76 360 0.0 0.0 0.00 0.00 0.00 97 1013.5
20260906091831 76 360 0.0 0.0 0.00 0.00 0.00 97 1013.4
20260906091331 76 360 0.0 0.0 0.00 0.00 0.00 97 1013.4
20260906090831 76 360 0.0 0.0 0.00 0.00 0.00 97 1013.3
20260906090331 76 360 0.0 0.0 0.00 0.00 0.00 97 1013.3
20260906085831 76 360 0.0 0.0 0.00 0.00 0.00 97 1013.3
20260906085331 76 360 0.0 0.0 0.00 0.00 0.00 97 1013.3
20260906084831 76 360 0.0 0.0 0.00 0.00 0.00 97 1013.3
20260906084331 76 360 0.0 0.0 0.00 0.00 0.00 97 1013.2
20260906083831 76 360 0.0 0.0 0.00 0.00 0.00 97 1013.1
20260906083331 76 360 0.0 0.0 0.00 0.00 0.00 97 1013.1
20260906082832 76 360 0.0 0.0 0.00 0.00 0.00 97 1013.2
20260906082333 76 95 0.0 0.0 0.00 0.00 0.00 97 1013.2
20260906081831 76 360 0.0 0.0 0.00 0.00 0.00 97 1013.2
20260906081331 76 360 0.0 0.0 0.00 0.00 0.00 97 1013.2
20260906080831 76 90 0.0 0.0 0.00 0.00 0.00 96 1013.2
20260906080331 76 360 0.0 0.0 0.00 0.00 0.00 96 1013.1
20260906075830 76 360 0.0 0.0 0.00 0.00 0.00 96 1013.1
20260906075331 76 360 0.0 0.0 0.00 0.00 0.00 96 1013.1
20260906074830 76 360 0.0 0.0 0.00 0.00 0.00 96 1013.1
20260906074331 76 360 0.0 0.0 0.00 0.00 0.00 96 1013.1
20260906073831 76 360 0.0 0.0 0.00 0.00 0.00 96 1013.1
20260906073331 76 360 0.0 0.0 0.00 0.00 0.00 96 1013.2
20260906072831 76 360 0.0 0.0 0.00 0.00 0.00 96 1013.3
20260906072331 76 360 0.0 0.0 0.00 0.00 0.00 97 1013.2
20260906071831 76 360 0.0 0.0 0.00 0.00 0.00 97 1013.2
20260906071331 75 360 0.0 0.0 0.00 0.00 0.00 97 1013.2
20260906070834 75 360 0.0 0.0 0.00 0.00 0.00 97 1013.2
20260906070331 75 81 0.0 1.7 0.00 0.00 0.00 97 1013.2
20260906065831 75 360 0.0 0.0 0.00 0.00 0.00 97 1013.2
20260906065330 75 360 0.0 0.0 0.00 0.00 0.00 97 1013.2
20260906064831 75 360 0.0 0.0 0.00 0.00 0.00 97 1013.2
20260906064331 75 93 0.0 1.7 0.00 0.00 0.00 97 1013.2
20260906063831 75 360 0.0 0.0 0.00 0.00 0.00 96 1013.3
20260906063331 75 90 0.0 0.9 0.00 0.00 0.00 96 1013.3
20260906062831 75 360 0.0 0.0 0.00 0.00 0.00 96 1013.4
20260906062331 75 360 0.0 0.0 0.00 0.00 0.00 96 1013.3
20260906061831 75 360 0.0 0.0 0.00 0.00 0.00 96 1013.3
20260906061331 75 360 0.0 0.0 0.00 0.00 0.00 96 1013.4
20260906060831 75 360 0.0 0.0 0.00 0.00 0.00 96 1013.4
20260906060330 75 360 0.0 0.0 0.00 0.00 0.00 96 1013.5
20260906055831 75 360 0.0 0.0 0.00 0.00 0.00 96 1013.5
20260906055331 75 360 0.0 0.0 0.00 0.00 0.00 96 1013.5
20260906054831 75 360 0.0 0.0 0.00 0.00 0.00 96 1013.5
20260906054331 75 360 0.0 0.0 0.00 0.00 0.00 96 1013.5
20260906053831 75 360 0.0 0.0 0.00 0.00 0.00 96 1013.5
20260906053331 75 360 0.0 0.0 0.00 0.00 0.00 96 1013.5
20260906052831 75 360 0.0 0.0 0.00 0.00 0.00 96 1013.5
20260906052330 75 360 0.0 0.0 0.00 0.00 0.00 95 1013.5
20260906051831 75 91 0.0 0.9 0.00 0.00 0.00 95 1013.5
20260906051331 75 360 0.0 0.0 0.00 0.00 0.00 95 1013.5
20260906050833 75 360 0.0 0.0 0.00 0.00 0.00 95 1013.4
20260906050331 75 360 0.0 0.0 0.00 0.00 0.00 95 1013.4
20260906045830 75 360 0.0 0.0 0.00 0.00 0.00 95 1013.5
20260906045331 75 360 0.0 0.0 0.00 0.00 0.00 95 1013.5
20260906044831 75 360 0.0 0.0 0.00 0.00 0.00 95 1013.5
20260906044331 75 360 0.0 0.0 0.00 0.00 0.00 95 1013.4
20260906043831 75 92 0.9 1.7 0.00 0.00 0.00 95 1013.4
20260906043331 75 91 0.9 1.7 0.00 0.00 0.00 95 1013.4
20260906042830 75 360 0.0 0.0 0.00 0.00 0.00 95 1013.4
20260906042330 75 360 0.0 0.0 0.00 0.00 0.00 95 1013.4
20260906041830 75 360 0.0 0.0 0.00 0.00 0.00 95 1013.3
20260906041331 75 360 0.0 0.0 0.00 0.00 0.00 95 1013.3
20260906040830 75 87 0.9 1.7 0.00 0.00 0.00 95 1013.3
20260906040332 75 80 1.7 2.6 0.00 0.00 0.00 95 1013.3
20260906035831 75 79 0.0 1.7 0.00 0.00 0.00 95 1013.3
20260906035331 75 54 0.9 1.7 0.00 0.00 0.00 95 1013.3
20260906034831 75 51 0.0 0.0 0.00 0.00 0.00 95 1013.2
20260906034331 75 360 0.0 0.0 0.00 0.00 0.00 95 1013.1
20260906033832 75 360 0.0 0.0 0.00 0.00 0.00 94 1013.1
20260906033331 75 90 0.0 1.7 0.00 0.00 0.00 93 1013.0
20260906032831 76 360 0.0 0.0 0.00 0.00 0.00 94 1013.0
20260906032331 76 360 0.0 0.0 0.00 0.00 0.00 95 1013.0
20260906031831 76 360 0.0 0.0 0.00 0.00 0.00 94 1013.0
20260906031331 76 360 0.0 0.0 0.00 0.00 0.00 93 1013.0
20260906030831 76 360 0.0 0.0 0.00 0.00 0.00 94 1012.9
20260906030331 76 360 0.0 0.0 0.00 0.00 0.00 94 1012.9
20260906025831 76 360 0.0 0.0 0.00 0.00 0.00 94 1013.0
20260906025330 76 360 0.0 0.0 0.00 0.00 0.00 94 1013.0
20260906024831 76 360 0.0 0.0 0.00 0.00 0.00 94 1012.9
20260906024331 76 360 0.0 0.0 0.00 0.00 0.00 92 1012.9
20260906023831 76 360 0.0 0.0 0.00 0.00 0.00 94 1012.9
20260906023331 76 360 0.0 0.0 0.00 0.00 0.00 94 1012.8
20260906022831 75 360 0.0 0.0 0.00 0.00 0.00 94 1012.8
20260906022332 75 360 0.0 0.0 0.00 0.00 0.00 93 1012.7
20260906021831 75 360 0.0 0.0 0.00 0.00 0.00 93 1012.4
20260906021331 75 360 0.0 0.0 0.00 0.00 0.00 93 1012.6
20260906020831 75 360 0.0 0.0 0.00 0.00 0.00 94 1012.6
20260906020331 75 360 0.0 0.0 0.00 0.00 0.00 93 1012.5
20260906015831 75 360 0.0 0.0 0.00 0.00 0.00 93 1012.6
20260906015331 75 360 0.0 0.0 0.00 0.00 0.00 93 1012.6
20260906014831 75 360 0.0 0.0 0.00 0.00 0.00 93 1012.5
20260906014331 75 97 0.0 0.0 0.00 0.00 0.00 93 1012.5
20260906013831 75 360 0.0 0.0 0.00 0.00 0.00 90 1012.5
20260906013330 75 103 1.7 1.7 0.00 0.00 0.00 93 1012.4
20260906012831 75 92 0.0 1.7 0.00 0.00 0.00 94 1012.3
20260906012331 75 95 1.7 1.7 0.00 0.00 0.00 93 1012.2
20260906011831 75 360 0.0 0.0 0.00 0.00 0.00 93 1012.2
20260906011331 75 360 0.0 0.0 0.00 0.00 0.00 93 1012.3
20260906010831 75 78 1.7 1.7 0.00 0.00 0.00 92 1012.0
20260906010331 76 360 0.0 0.0 0.00 0.00 0.00 91 1012.3
20260906005831 76 360 0.0 0.0 0.00 0.00 0.00 91 1012.2
20260906005331 76 360 0.0 0.0 0.00 0.00 0.00 92 1012.1
20260906004831 77 95 0.0 1.7 0.00 0.00 0.00 91 1012.1
20260906004331 78 68 0.0 1.7 0.00 0.00 0.00 90 1012.1
20260906003831 78 360 0.0 0.0 0.00 0.00 0.00 85 1012.2
20260906003331 78 360 0.0 0.0 0.00 0.00 0.00 82 1012.2
20260906002831 78 272 1.7 2.6 0.00 0.00 0.00 83 1012.2
20260906002331 77 250 2.6 3.5 0.00 0.00 0.00 83 1012.2
20260906001831 78 360 0.0 0.0 0.00 0.00 0.00 87 1012.0
20260906001331 78 360 0.0 0.0 0.00 0.00 0.00 87 1011.9
20260906000831 79 214 0.0 0.9 0.00 0.00 0.00 76 1012.0
20260906000333 80 251 0.9 3.5 0.00 0.00 0.00 78 1012.0
20260905235831 82 262 5.2 9.6 0.00 0.00 0.00 78 1012.3
20260905235331 84 239 0.9 2.6 0.00 0.00 0.00 75 1012.2
20260905234831 87 305 2.6 5.2 0.00 0.00 0.00 70 1012.1
20260905234331 91 93 1.7 6.1 0.00 0.00 0.00 63 1012.1
20260905233831 94 307 1.7 5.2 0.00 0.00 0.00 49 1012.3
20260905233331 95 42 0.0 1.7 0.00 0.00 0.00 46 1011.8
20260905232831 97 44 1.7 2.6 0.00 0.00 0.00 46 1011.8
20260905232330 98 40 0.9 2.6 0.00 0.00 0.00 46 1011.5
20260905231831 99 199 0.0 0.9 0.00 0.00 0.00 44 1011.4
20260905231331 99 230 1.7 1.7 0.00 0.00 0.00 42 1011.3
20260905230830 99 308 0.9 1.7 0.00 0.00 0.00 42 1011.3
20260905230331 99 270 0.9 2.6 0.00 0.00 0.00 42 1011.2
20260905225831 100 344 0.9 1.7 0.00 0.00 0.00 41 1011.3
20260905225331 100 255 1.7 1.7 0.00 0.00 0.00 42 1011.3
20260905224831 99 223 0.9 1.7 0.00 0.00 0.00 42 1011.2
20260905224331 100 221 0.0 1.7 0.00 0.00 0.00 41 1011.3
20260905223831 100 220 0.9 1.7 0.00 0.00 0.00 40 1011.2
20260905223331 100 221 0.9 2.6 0.00 0.00 0.00 40 1011.2
20260905222831 99 324 1.7 2.6 0.00 0.00 0.00 41 1011.3
20260905222331 99 305 1.7 1.7 0.00 0.00 0.00 41 1011.3
20260905221831 100 237 0.9 1.7 0.00 0.00 0.00 41 1011.3
20260905221331 100 318 1.7 2.6 0.00 0.00 0.00 40 1011.2
20260905220831 100 270 1.7 2.6 0.00 0.00 0.00 41 1011.1
20260905220331 99 250 0.9 1.7 0.00 0.00 0.00 40 1011.1
20260905215831 99 327 0.9 1.7 0.00 0.00 0.00 41 1011.2
20260905215331 99 328 1.7 1.7 0.00 0.00 0.00 41 1011.2
20260905214831 99 288 1.7 2.6 0.00 0.00 0.00 41 1011.3
20260905214331 99 349 1.7 2.6 0.00 0.00 0.00 42 1011.3
20260905213831 99 341 1.7 4.3 0.00 0.00 0.00 41 1011.3
20260905213331 99 109 0.9 1.7 0.00 0.00 0.00 43 1011.2
20260905212831 98 231 1.7 1.7 0.00 0.00 0.00 43 1011.3
20260905212331 98 312 0.9 1.7 0.00 0.00 0.00 43 1011.3
20260905211831 98 265 0.9 1.7 0.00 0.00 0.00 43 1011.4
20260905211331 98 324 0.9 1.7 0.00 0.00 0.00 44 1011.5
20260905210831 98 213 0.0 1.7 0.00 0.00 0.00 44 1011.5
20260905210331 98 203 0.0 0.0 0.00 0.00 0.00 45 1011.6
20260905205831 98 304 0.0 1.7 0.00 0.00 0.00 45 1011.6
20260905205331 98 217 0.0 1.7 0.00 0.00 0.00 44 1011.6
20260905204831 99 353 0.0 1.7 0.00 0.00 0.00 43 1011.7
20260905204331 99 351 0.9 2.6 0.00 0.00 0.00 43 1011.7
20260905203831 99 340 1.7 2.6 0.00 0.00 0.00 42 1011.7
20260905203330 99 346 1.7 2.6 0.00 0.00 0.00 41 1011.8
20260905202831 100 340 2.6 3.5 0.00 0.00 0.00 41 1011.8
20260905202331 99 335 1.7 3.5 0.00 0.00 0.00 42 1011.8
20260905201831 99 217 1.7 2.6 0.00 0.00 0.00 42 1011.8
20260905201331 99 332 1.7 3.5 0.00 0.00 0.00 41 1011.9
20260905200831 98 321 1.7 2.6 0.00 0.00 0.00 42 1011.9
20260905200331 98 192 0.9 1.7 0.00 0.00 0.00 43 1012.0
20260905195832 98 290 0.0 0.9 0.00 0.00 0.00 43 1012.1
20260905195331 98 186 0.0 0.9 0.00 0.00 0.00 45 1012.1
20260905194831 98 353 0.9 1.7 0.00 0.00 0.00 44 1012.3
20260905194331 98 261 0.0 1.7 0.00 0.00 0.00 45 1012.3
20260905193831 98 348 1.7 2.6 0.00 0.00 0.00 43 1012.4
20260905193330 98 351 1.7 2.6 0.00 0.00 0.00 43 1012.4
20260905192831 98 353 1.7 2.6 0.00 0.00 0.00 43 1012.5
20260905192331 98 353 1.7 2.6 0.00 0.00 0.00 45 1012.5
20260905191831 98 211 0.9 1.7 0.00 0.00 0.00 43 1012.5
20260905191331 98 360 0.0 0.0 0.00 0.00 0.00 43 1012.6
20260905190831 98 244 0.9 1.7 0.00 0.00 0.00 43 1012.6
20260905190331 98 326 1.7 2.6 0.00 0.00 0.00 43 1012.7
20260905185832 98 342 1.7 1.7 0.00 0.00 0.00 43 1012.7
20260905185331 98 140 0.0 1.7 0.00 0.00 0.00 45 1012.7
20260905184830 98 276 0.0 1.7 0.00 0.00 0.00 44 1012.8
20260905184331 98 219 0.9 0.9 0.00 0.00 0.00 44 1012.9
20260905183831 98 334 1.7 2.6 0.00 0.00 0.00 45 1012.9
20260905183331 98 251 0.9 2.6 0.00 0.00 0.00 44 1012.9
20260905182830 98 179 0.9 1.7 0.00 0.00 0.00 44 1013.0
20260905182331 98 349 1.7 2.6 0.00 0.00 0.00 45 1013.0
20260905181831 98 173 1.7 2.6 0.00 0.00 0.00 45 1013.0
20260905181332 98 238 0.9 1.7 0.00 0.00 0.00 45 1013.0
20260905180831 98 343 1.7 3.5 0.00 0.00 0.00 44 1013.1
20260905180331 98 172 1.7 2.6 0.00 0.00 0.00 44 1013.2
20260905175831 98 338 1.7 2.6 0.00 0.00 0.00 43 1013.2
20260905175331 98 328 0.9 1.7 0.00 0.00 0.00 44 1013.3
20260905174831 97 231 0.0 1.7 0.00 0.00 0.00 45 1013.4
20260905174330 97 246 0.9 1.7 0.00 0.00 0.00 45 1013.4
20260905173831 97 291 0.9 1.7 0.00 0.00 0.00 44 1013.3
20260905173331 97 219 0.9 1.7 0.00 0.00 0.00 45 1013.4
20260905172831 97 337 1.7 2.6 0.00 0.00 0.00 45 1013.4
20260905172331 97 233 1.7 2.6 0.00 0.00 0.00 45 1013.4
20260905171831 97 354 1.7 2.6 0.00 0.00 0.00 46 1013.5
20260905171332 97 335 1.7 1.7 0.00 0.00 0.00 46 1013.7
20260905170831 97 243 0.0 1.7 0.00 0.00 0.00 45 1013.8
20260905170331 98 183 0.9 1.7 0.00 0.00 0.00 45 1013.8
20260905165832 97 333 1.7 3.5 0.00 0.00 0.00 45 1014.1
20260905165331 97 342 1.7 2.6 0.00 0.00 0.00 47 1013.9
20260905164831 97 325 2.6 3.5 0.00 0.00 0.00 47 1013.9
20260905164331 97 298 1.7 2.6 0.00 0.00 0.00 47 1014.1
20260905163831 96 152 1.7 1.7 0.00 0.00 0.00 48 1014.1
20260905163330 96 243 1.7 2.6 0.00 0.00 0.00 48 1014.1
20260905162831 96 325 1.7 3.5 0.00 0.00 0.00 48 1014.1
20260905162331 96 277 0.9 1.7 0.00 0.00 0.00 48 1014.2
20260905161831 96 233 0.9 1.7 0.00 0.00 0.00 48 1014.2
20260905161331 96 234 1.7 2.6 0.00 0.00 0.00 48 1014.2
20260905160831 96 333 2.6 5.2 0.00 0.00 0.00 48 1014.3
20260905160331 96 339 1.7 2.6 0.00 0.00 0.00 49 1014.3
20260905155831 96 188 0.9 1.7 0.00 0.00 0.00 51 1014.3
20260905155331 96 246 0.9 1.7 0.00 0.00 0.00 51 1014.3
20260905154831 95 211 0.9 2.6 0.00 0.00 0.00 53 1014.3
20260905154331 95 223 0.9 1.7 0.00 0.00 0.00 53 1014.3
20260905153831 95 247 1.7 2.6 0.00 0.00 0.00 53 1014.3
20260905153331 95 284 1.7 2.6 0.00 0.00 0.00 52 1014.4
20260905152832 95 192 1.7 2.6 0.00 0.00 0.00 52 1014.4
20260905152331 95 255 0.0 0.9 0.00 0.00 0.00 52 1014.4
20260905151831 95 225 0.0 1.7 0.00 0.00 0.00 52 1014.4
20260905151331 95 193 0.0 1.7 0.00 0.00 0.00 52 1014.4
20260905150831 95 333 1.7 2.6 0.00 0.00 0.00 53 1014.4
20260905150331 94 305 0.9 1.7 0.00 0.00 0.00 55 1014.4
20260905145831 94 187 0.0 1.7 0.00 0.00 0.00 55 1014.4
20260905145331 93 314 0.0 0.0 0.00 0.00 0.00 55 1014.5
20260905144831 93 360 0.0 0.0 0.00 0.00 0.00 56 1014.6
20260905144331 92 360 0.0 0.0 0.00 0.00 0.00 58 1014.6
20260905143831 91 360 0.0 0.0 0.00 0.00 0.00 61 1014.7
20260905143331 90 360 0.0 0.0 0.00 0.00 0.00 63 1014.8
20260905142831 89 360 0.0 0.0 0.00 0.00 0.00 66 1014.8
20260905142331 88 360 0.0 0.0 0.00 0.00 0.00 69 1014.8
20260905141831 87 360 0.0 0.0 0.00 0.00 0.00 74 1014.9
20260905141331 86 360 0.0 0.0 0.00 0.00 0.00 75 1015.0
20260905140831 85 360 0.0 0.0 0.00 0.00 0.00 76 1015.0
20260905140331 85 360 0.0 0.0 0.00 0.00 0.00 77 1015.0
20260905135831 84 360 0.0 0.0 0.00 0.00 0.00 78 1015.0
20260905135331 84 360 0.0 0.0 0.00 0.00 0.00 79 1015.1
20260905134830 83 360 0.0 0.0 0.00 0.00 0.00 79 1015.1
20260905134331 82 360 0.0 0.0 0.00 0.00 0.00 81 1015.1
20260905133831 81 360 0.0 0.0 0.00 0.00 0.00 82 1015.2
20260905133331 81 360 0.0 0.0 0.00 0.00 0.00 83 1015.1
20260905132831 80 360 0.0 0.0 0.00 0.00 0.00 87 1015.2
20260905132331 80 360 0.0 0.0 0.00 0.00 0.00 88 1015.2
20260905131830 80 360 0.0 0.0 0.00 0.00 0.00 88 1015.2
20260905131331 79 360 0.0 0.0 0.00 0.00 0.00 89 1015.2
20260905130831 79 360 0.0 0.0 0.00 0.00 0.00 90 1015.2
20260905130331 78 360 0.0 0.0 0.00 0.00 0.00 90 1015.2
20260905125831 78 360 0.0 0.0 0.00 0.00 0.00 91 1015.3
20260905125331 77 360 0.0 0.0 0.00 0.00 0.00 92 1015.3
20260905124831 77 360 0.0 0.0 0.00 0.00 0.00 92 1015.3